Regional Weather Roundup
Issued by NWS

Home | Current Version | Previous Version | Graphics & Text | Print | Product List | Glossary On
Versions: 1 2 3 4 5 6 7 8 9 10 11 12 13 14 15 16 17 18 19 20 21 22 23 24 25 26 27 28 29 30 31 32 33 34 35 36 37 38 39 40 41 42 43 44 45 46 47 48 49 50
861
ASUS43 KOAX 182010
RWRNE

WEATHER ROUNDUP FOR NEBRASKA
NATIONAL WEATHER SERVICE OMAHA NE
300 PM CDT WED OCT 18 2017

NOTES: SATELLITE DATA IS BEING USED TO AUGMENT CLOUD COVER ABOVE
       12000 FEET.
       "FAIR" INDICATES FEW OR NO CLOUDS BELOW 12,000 FEET WITH NO
       SIGNIFICANT WEATHER AND/OR OBSTRUCTIONS TO VISIBILITY.


NEZ001>004-019>022-054>056-182100-
NEBRASKA PANHANDLE

CITY           SKY/WX    TMP DP  RH WIND       PRES   REMARKS
SCOTTSBLUFF    SUNNY     72  23  16 SE9       30.09F
ALLIANCE       SUNNY     69  26  20 E7        30.09F
CHADRON        SUNNY     68  26  20 E8        30.08F
GORDON         FAIR      65  25  21 NE5       30.09F
KIMBALL        SUNNY     70  20  15 CALM      30.14S
SIDNEY         SUNNY     73  22  14 E6        30.12S
$$

NEZ057>060-069>072-079>082-182100-
SOUTHWEST NEBRASKA

CITY           SKY/WX    TMP DP  RH WIND       PRES   REMARKS
NORTH PLATTE   SUNNY     75  32  20 NE13      30.04S
IMPERIAL       SUNNY     79  20  11 NE13      30.05F
LEXINGTON      SUNNY     74  33  21 N20G25    30.01R
MCCOOK         SUNNY     80  32  17 N18G28    30.00F
OGALLALA       SUNNY     75  27  16 E10G18    30.06S
$$

NEZ005>010-023>029-035>040-094-182100-
NORTH CENTRAL NEBRASKA

CITY           SKY/WX    TMP DP  RH WIND       PRES   REMARKS
VALENTINE      SUNNY     69  29  22 N9        30.07S
AINSWORTH      SUNNY     66  35  30 N14G22    30.06S
BROKEN BOW     SUNNY     73  36  25 N13G25    30.02S
O`NEILL        SUNNY     70  37  29 N14G20    30.02R
ORD            SUNNY     73  32  22 N16G22    30.00R
THEDFORD       SUNNY     71  33  25 NE16      30.07S
$$

NEZ041-046>049-061>064-073>077-083>087-182100-
SOUTH CENTRAL NEBRASKA

CITY           SKY/WX    TMP DP  RH WIND       PRES   REMARKS
GRAND ISLAND   SUNNY     77  37  23 N13       29.96S
AURORA         SUNNY     76  38  25 N6        29.95S
HASTINGS       SUNNY     76  39  26 N14G20    29.96S
HEBRON         SUNNY     76  48  37 SW9       29.94S
HOLDREGE       SUNNY     76  38  26 N15       29.98S
KEARNEY        SUNNY     75  37  25 N17G24    29.98R
YORK           SUNNY     75  41  29 N7        29.94S
$$

NEZ011>018-030>034-042>045-182100-
NORTHEAST NEBRASKA

CITY           SKY/WX    TMP DP  RH WIND       PRES   REMARKS
NORFOLK        SUNNY     73  37  27 N18       29.93R
ALBION         SUNNY     74  38  27 N15       29.97R
BLAIR          SUNNY     75  49  39 S8        29.92S
COLUMBUS       SUNNY     76  40  27 N10G16    29.94R
FREMONT        SUNNY     74  46  35 W7        29.92S
TEKAMAH        SUNNY     78  45  30 NW8       29.91S
WAYNE          SUNNY     71  37  28 N16       29.94R
$$

NEZ050>053-065>068-078-088>093-182100-
SOUTHEAST NEBRASKA

CITY           SKY/WX    TMP DP  RH WIND       PRES   REMARKS
LINCOLN        SUNNY     78  48  34 W10       29.93S
OMAHA EPPLEY   MOSUNNY   75  48  38 SW9       29.91F
BEATRICE       SUNNY     73  51  45 SW10      29.94R
FALLS CITY     SUNNY     72  49  44 S10       29.95S
NEBRASKA CITY  SUNNY     73  51  45 SW8G16    29.94S
PLATTSMOUTH    SUNNY     74  48  39 SW7       29.93F
$$

NEZ044-045-051>053-067-182100-
OMAHA AREA

CITY           SKY/WX    TMP DP  RH WIND       PRES   REMARKS
OMAHA EPPLEY   MOSUNNY   75  48  38 SW9       29.91F
BLAIR          SUNNY     75  49  39 S8        29.92S
FREMONT        SUNNY     74  46  35 W7        29.92S
MILLARD        SUNNY     77  51  40 SW6       29.91F
OFFUTT AFB     SUNNY     75  47  37 S12       29.91F
PLATTSMOUTH    SUNNY     74  48  39 SW7       29.93F
WAHOO          FAIR      79  44  28 N3        29.92S
$$




USA.gov is the U.S. government's official web portal to all federal, state and local government web resources and services.